[[{"header":{"parameterUnit":"m.s-1","parameterCategory":1,"la1":30.2991,"la2":30.254,"lo1":-89.0895,"lo2":-89.0444,"dy":0.0017,"dx":0.0017,"nx":28,"ny":28,"refTime":"2026-02-14T09:00:00:Z","depth":0,"parameterNumber":2,"parameterNumberName":"U-component_of_WINDS"},"data":[0,0,0,0,0,0,0,0,0,0,0,0,0,0,0,0,0,0,0,0,0,0,0,0,0,0,0,0,0,0,0,0,0,0,0,0,0,0,0,0,0,0,0,0,0,0,0,0,0,0,0,0,0,0,0,0,0,0,7.5272,7.5272,0,7.5283,7.5283,7.5283,7.5257,7.5256,7.5255,7.5255,7.5264,7.5265,7.5266,0,0,0,0,0,0,0,0,0,0,0,0,0,7.5228,7.5229,7.5272,7.5272,7.5272,7.5283,7.5283,7.5283,7.5257,7.5256,7.5255,7.5254,7.5264,7.5265,7.5266,0,0,0,0,0,0,0,0,0,0,0,0,0,7.5244,7.5229,7.5272,7.5261,7.526,7.5283,7.5283,7.5283,7.5257,7.5256,7.5255,7.5254,7.5263,7.5265,7.5266,7.53,0,0,7.5271,7.5272,0,0,0,0,0,0,0,0,7.5243,7.5246,7.5262,7.5262,7.5261,7.5268,7.5271,7.5289,7.5258,7.5258,7.5255,7.5253,7.5266,7.5267,7.5272,7.5301,7.5301,7.5271,7.5272,7.5273,7.5273,0,0,0,0,0,0,0,7.5242,7.5245,7.5276,7.5263,7.5262,7.5255,7.5256,7.5274,7.5269,7.5258,7.5256,7.5258,7.5265,7.5271,7.5272,7.5301,7.5271,7.5272,7.5273,7.5274,7.536,7.5362,0,0,0,0,0,0,7.5243,7.5244,7.5276,7.5277,7.5249,7.5257,7.5258,7.5267,7.5269,7.5268,7.5259,7.5257,7.5269,7.527,7.5272,7.5313,7.5273,7.5274,7.5275,7.5359,7.5361,7.5362,0,0,0,0,0,0,7.5242,7.5246,7.5276,7.526,7.5263,7.5259,7.5269,7.5267,7.5273,7.5269,7.5268,7.5265,7.5268,7.527,7.5294,7.5313,7.5275,7.5276,7.5357,7.5359,7.5361,7.5394,0,0,0,0,0,0,7.5241,7.5246,7.5258,7.5261,7.5264,7.5297,7.527,7.5268,7.5275,7.5273,7.5275,7.5274,7.5267,7.5292,7.5296,7.5314,7.5277,7.5356,7.5358,7.5361,7.5391,7.5397,7.5402,0,0,0,0,0,7.5239,7.5266,7.5259,7.5263,7.528,7.5298,7.5301,7.5292,7.5277,7.529,7.5288,7.5274,7.5311,7.5295,7.5298,7.5318,7.5354,7.5358,7.5361,7.5389,7.5396,7.5402,0,0,0,0,0,0,7.5265,7.5266,7.5258,7.5287,7.5293,7.5294,7.531,7.53,7.5309,7.5306,7.5295,7.5295,7.5322,7.5322,7.5305,7.5352,7.533,7.5334,7.535,7.5357,7.5362,7.5361,7.5279,0,0,0,0,0,7.5275,7.529,7.529,7.5315,7.5319,7.5314,7.5322,7.5315,7.532,7.5322,7.5322,7.5328,7.534,7.5349,7.536,7.5392,7.5392,7.5407,7.5413,7.5417,7.542,7.5438,7.5445,7.5372,7.5372,7.5372,0,0,7.5293,7.5296,7.5306,7.5321,7.5324,7.534,7.5316,7.5333,7.5345,7.5325,7.5347,7.5348,7.5353,7.5382,7.5394,7.5383,7.5441,7.5421,7.5425,7.5425,7.5442,7.5449,7.5455,7.5374,7.5374,7.5374,0,0,7.5336,7.5339,7.5361,7.5366,7.5373,7.537,7.5376,7.5379,7.5379,7.5402,7.5387,7.5401,7.5423,7.5428,7.5433,7.548,7.5467,7.5484,7.5511,7.5529,7.5534,7.5539,7.5556,7.5562,7.5488,7.5488,7.5488,0,7.5358,7.5381,7.5374,7.5393,7.54,7.5384,7.5407,7.5411,7.5421,7.5426,7.5414,7.5443,7.5445,7.5475,7.5487,7.5491,7.5497,7.5483,7.5534,7.5539,7.5544,7.556,7.5566,7.549,7.549,7.5489,7.5489,0,7.5409,7.5426,7.5443,7.5454,7.5463,7.5484,7.5479,7.549,7.5483,7.5482,7.5506,7.5509,7.5521,7.5528,7.5521,7.5557,7.555,7.5536,7.5514,7.5553,7.5568,7.5574,7.5493,7.5492,7.5491,7.5491,0,0,7.5465,7.5474,7.5481,7.5486,7.5494,7.5506,7.5527,7.554,7.5549,7.5557,7.5574,7.5594,7.5582,7.5589,7.5582,7.5598,7.5635,7.5582,7.5582,7.5592,7.5676,7.5685,7.5692,7.5628,7.5629,7.563,7.5675,0,7.5507,7.5543,7.5538,7.5572,7.5588,7.5575,7.5593,7.5599,7.5599,7.5612,7.5612,7.5626,7.5609,7.5613,7.5628,7.5628,7.5652,7.5624,7.5643,7.5643,7.5641,7.57,7.571,7.5752,7.5681,7.5682,7.5682,0,7.556,7.5572,7.5608,7.5615,7.5621,7.5638,7.565,7.5663,7.5671,7.5669,7.5678,7.5669,7.569,7.5668,7.5697,7.5678,7.5686,7.5687,7.5688,7.5689,7.5664,7.5701,7.5765,7.5771,7.5691,7.5691,7.569,0,7.5598,7.5623,7.5648,7.5653,7.5661,7.5673,7.5677,7.5684,7.5693,7.5704,7.5709,7.5722,7.5729,7.5739,7.5735,7.5719,7.5764,7.5742,7.5763,7.5763,7.5772,7.5771,7.5837,7.5778,7.5778,7.5778,7.5778,0,7.5644,7.5667,7.5665,7.568,7.5706,7.57,7.5725,7.5728,7.5734,7.575,7.5739,7.5754,7.5747,7.5761,7.5758,7.5782,7.5785,7.5785,7.5783,7.5785,7.5785,7.5789,7.5785,7.578,7.578,7.5779,7.5779,0,7.569,7.5689,7.5716,7.5723,7.5725,7.5744,7.5749,7.5764,7.5764,7.5784,7.5788,7.5788,7.5804,7.5801,7.5819,7.5817,7.5847,7.5842,7.5845,7.5843,7.5865,7.5862,7.5934,7.5944,7.588,7.588,7.5881,0,7.5719,7.5736,7.5746,7.5756,7.5762,7.5778,7.5788,7.5784,7.5794,7.5805,7.5818,7.5835,7.5847,7.5874,7.5875,7.5889,7.5884,7.5909,7.5886,7.5888,7.5884,7.5882,7.5884,7.5912,7.5913,7.5914,7.5914,0,7.5771,7.577,7.5785,7.58,7.5813,7.5824,7.5834,7.5843,7.584,7.5852,7.587,7.588,7.5899,7.5915,7.5929,7.5932,7.5923,7.5922,7.5927,7.5929,7.5929,7.5929,7.5856,7.592,7.5919,7.5919,7.5918,7.5918,7.5808,7.5824,7.5834,7.5851,7.5859,7.5869,7.5884,7.5887,7.5901,7.5917,7.5914,7.5934,7.5943,7.596,7.5966,7.5981,7.5972,7.598,7.5982,7.5983,7.5986,7.5928,7.5983,7.5983,7.5983,7.5983,7.5983,0,7.5859,7.5866,7.5882,7.5898,7.5911,7.5903,7.5915,7.5927,7.5945,7.5954,7.5967,7.5988,7.6004,7.6007,7.6023,7.6034,7.603,7.6038,7.6037,7.6038,7.5993,7.5987,7.6041,7.6041,7.6041,7.6041,7.6041,7.6041,7.5887,7.5913,7.5915,7.5945,7.5951,7.5971,7.5978,7.5988,7.5996,7.602,7.6034,7.6036,7.6043,7.6059,7.6074,7.6074,7.608,7.609,7.6089,7.6047,7.6041,7.6035,7.6029,7.6091,7.6091,7.6131,7.6132,7.6132]},{"header":{"parameterUnit":"m.s-1","parameterCategory":1,"la1":30.2991,"la2":30.254,"lo1":-89.0895,"lo2":-89.0444,"dy":0.0017,"dx":0.0017,"nx":28,"ny":28,"refTime":"2026-02-14T09:00:00:Z","depth":0,"parameterNumber":3,"parameterNumberName":"V-component_of_WINDS"},"data":[0,0,0,0,0,0,0,0,0,0,0,0,0,0,0,0,0,0,0,0,0,0,0,0,0,0,0,0,0,0,0,0,0,0,0,0,0,0,0,0,0,0,0,0,0,0,0,0,0,0,0,0,0,0,0,0,0,0,0.4839,0.484,0,0.498,0.4982,0.4983,0.5004,0.5002,0.5001,0.5,0.5147,0.5152,0.5157,0,0,0,0,0,0,0,0,0,0,0,0,0,0.4588,0.4593,0.4839,0.4841,0.4842,0.498,0.4982,0.4984,0.5004,0.5002,0.5001,0.4999,0.5146,0.5152,0.5158,0,0,0,0,0,0,0,0,0,0,0,0,0,0.471,0.4594,0.4838,0.4869,0.4873,0.4979,0.4982,0.4984,0.5004,0.5002,0.5,0.4998,0.5144,0.5151,0.5159,0.5246,0,0,0.5182,0.5186,0,0,0,0,0,0,0,0,0.4703,0.4719,0.4863,0.4867,0.4872,0.4972,0.4947,0.5072,0.5005,0.4954,0.5,0.4997,0.5091,0.5103,0.5134,0.5252,0.5259,0.5183,0.5188,0.5191,0.5193,0,0,0,0,0,0,0,0.4695,0.4713,0.4895,0.4865,0.487,0.4876,0.4891,0.4971,0.5032,0.4959,0.496,0.4977,0.5093,0.5126,0.5137,0.5261,0.5183,0.519,0.5194,0.5197,0.5456,0.5458,0,0,0,0,0,0,0.468,0.4706,0.489,0.4899,0.4781,0.4882,0.4899,0.4942,0.5031,0.5043,0.4978,0.4977,0.5114,0.5128,0.5143,0.5249,0.5191,0.5198,0.5203,0.5454,0.5457,0.5459,0,0,0,0,0,0,0.4675,0.4697,0.4885,0.4803,0.4827,0.4888,0.4937,0.4946,0.4979,0.5046,0.5057,0.5001,0.5113,0.5132,0.5219,0.5254,0.5202,0.5209,0.5451,0.5455,0.5458,0.5462,0,0,0,0,0,0,0.4668,0.4695,0.4728,0.4804,0.4832,0.4958,0.4939,0.495,0.4992,0.4992,0.507,0.5081,0.5113,0.5207,0.5227,0.5264,0.5215,0.5448,0.5453,0.5457,0.5459,0.5465,0.5471,0,0,0,0,0,0.4659,0.4725,0.4729,0.4752,0.4875,0.496,0.4976,0.5011,0.4995,0.5029,0.5071,0.5079,0.5247,0.5216,0.5238,0.5278,0.5446,0.5452,0.5456,0.5457,0.5464,0.547,0,0,0,0,0,0,0.4653,0.4735,0.4742,0.4834,0.489,0.4964,0.5008,0.5018,0.508,0.5078,0.5118,0.5136,0.5221,0.5259,0.5223,0.5366,0.5345,0.5355,0.5338,0.5346,0.5351,0.534,0.5221,0,0,0,0,0,0.4662,0.4724,0.4793,0.4868,0.4896,0.4947,0.4985,0.5007,0.5067,0.5091,0.514,0.5199,0.5264,0.5307,0.5372,0.5465,0.5482,0.5503,0.5508,0.5513,0.5521,0.5571,0.5581,0.5476,0.5476,0.5475,0,0,0.4682,0.4735,0.4772,0.4868,0.4914,0.4977,0.4967,0.5035,0.5082,0.5102,0.5186,0.5224,0.5293,0.5382,0.5425,0.5416,0.5553,0.5519,0.5522,0.5528,0.5577,0.5587,0.5596,0.5479,0.5478,0.5478,0,0,0.4751,0.4798,0.4864,0.491,0.4979,0.5012,0.5028,0.51,0.5126,0.5211,0.5226,0.5284,0.5397,0.5444,0.5483,0.5568,0.5576,0.5588,0.5617,0.5666,0.5674,0.5682,0.5711,0.5721,0.5595,0.5595,0.5595,0,0.4768,0.4864,0.4898,0.4965,0.5006,0.5025,0.5092,0.5135,0.5222,0.525,0.5239,0.538,0.5428,0.5528,0.5548,0.558,0.5599,0.5579,0.567,0.5678,0.5685,0.5714,0.5725,0.5596,0.5596,0.5596,0.5596,0,0.488,0.4946,0.4992,0.5073,0.512,0.5187,0.5231,0.5274,0.5291,0.5325,0.5412,0.5469,0.5544,0.557,0.5588,0.5672,0.5665,0.5662,0.5642,0.5696,0.5723,0.5734,0.5597,0.5597,0.5597,0.5597,0,0,0.4951,0.5048,0.5065,0.5101,0.5178,0.523,0.5297,0.537,0.5405,0.5464,0.5522,0.5616,0.5613,0.5657,0.568,0.5722,0.5784,0.5714,0.5716,0.5724,0.588,0.5881,0.5893,0.579,0.5792,0.5794,0.5874,0,0.5028,0.5148,0.5179,0.5281,0.5342,0.536,0.5418,0.5472,0.5505,0.5562,0.56,0.5665,0.5656,0.5683,0.5726,0.5767,0.5816,0.5762,0.5844,0.5846,0.5826,0.5908,0.591,0.5982,0.5885,0.5886,0.5888,0,0.5134,0.5193,0.5301,0.5368,0.5394,0.5446,0.5514,0.5569,0.5629,0.5651,0.5699,0.5717,0.5788,0.5764,0.5862,0.5825,0.586,0.5885,0.5889,0.5898,0.587,0.5918,0.6006,0.6016,0.5905,0.5904,0.5902,0,0.5173,0.528,0.5357,0.5388,0.5469,0.5505,0.554,0.5598,0.5639,0.5699,0.5726,0.5794,0.5831,0.5883,0.5919,0.5899,0.6013,0.5993,0.6033,0.6032,0.6056,0.6054,0.615,0.608,0.608,0.6079,0.6079,0,0.5255,0.532,0.5376,0.5423,0.5496,0.5532,0.5603,0.5639,0.5691,0.5746,0.5766,0.5817,0.5862,0.592,0.5949,0.6024,0.6041,0.606,0.6067,0.6058,0.6056,0.6082,0.6077,0.6082,0.6082,0.6081,0.6081,0,0.5311,0.5351,0.5436,0.5505,0.5523,0.5574,0.5633,0.568,0.5713,0.5783,0.5801,0.5854,0.5922,0.5963,0.6051,0.607,0.6153,0.6159,0.6132,0.6135,0.6172,0.6168,0.6289,0.6306,0.6224,0.6225,0.6225,0,0.5361,0.541,0.5484,0.5521,0.5556,0.5617,0.5659,0.5695,0.5738,0.5809,0.5848,0.5917,0.5974,0.6083,0.6129,0.6195,0.6202,0.624,0.6212,0.6201,0.6201,0.6197,0.6202,0.6244,0.6245,0.6245,0.6246,0,0.5444,0.546,0.5519,0.5584,0.5632,0.5686,0.5739,0.5769,0.5814,0.5861,0.593,0.5974,0.6062,0.6131,0.62,0.6237,0.6249,0.6254,0.6266,0.6258,0.624,0.6249,0.6144,0.6251,0.6251,0.625,0.625,0.625,0.5497,0.5542,0.56,0.5664,0.5707,0.5756,0.5803,0.5841,0.59,0.5973,0.5991,0.6064,0.6122,0.6217,0.6255,0.6312,0.6307,0.6325,0.633,0.6333,0.6334,0.6231,0.6326,0.6325,0.6325,0.6325,0.6325,0,0.558,0.5618,0.5677,0.5749,0.5799,0.5805,0.5864,0.5905,0.5969,0.6021,0.6077,0.6156,0.6222,0.6273,0.634,0.6376,0.6383,0.6393,0.639,0.6398,0.6336,0.6317,0.6386,0.6386,0.6386,0.6386,0.6386,0.6386,0.563,0.5705,0.5728,0.5825,0.5862,0.5932,0.5965,0.601,0.6052,0.6139,0.6194,0.6226,0.6278,0.6349,0.641,0.6423,0.6447,0.6455,0.6469,0.641,0.6403,0.6397,0.638,0.646,0.646,0.6527,0.6528,0.6528]}]]